Location: Earls Croome
(52.0667°N, 2.2000°W)
Time: 16:29:46
(UTC+00:00)

COSMOS 2441 - Pass Details

Date: 17 November 2019
Orbit: 707 x 732 km, 98.0° (Epoch: 14 December)

Event Time Altitude Azimuth Distance (km) Brightness Sun altitude
Rises 04:58:12 0° 11° (N) 3,144 7.8 -23.3°
Reaches altitude 10° 05:00:31 10° 7° (N) 2,215 6.9 -22.9°
Enters shadow 05:05:01 54° 302° (WNW) 874 4.4 -22.2°
